Regional Weather Roundup
Issued by NWS Portland, ME

Home | Current Version | Previous Version | Text Only | Print | Product List | Glossary On
Versions: 1 2 3 4 5 6 7 8 9 10 11 12 13 14 15 16 17 18 19 20 21 22 23 24 25 26 27 28 29 30 31 32 33 34 35 36 37 38 39 40 41 42 43 44 45 46 47 48 49 50
145
ASUS41 KGYX 291010
RWRGYX
WEATHER ROUNDUP FOR MAINE AND NEW HAMPSHIRE
NATIONAL WEATHER SERVICE GRAY ME
600 AM EDT THU JUN 29 2017

MEZ002-005-006-010-012-015-018-020-021-024-026-027-029-291100-
MAINE

CITY           SKY/WX    TMP DP  RH WIND       PRES   REMARKS
PORTLAND       PTCLDY    54  51  90 SW3       30.08S
SANFORD        PTCLDY    53  52  96 CALM      30.10R
BAR HARBOR     CLEAR     52  51  97 CALM      30.07R
WISCASSET      CLEAR     53  51  93 CALM      30.08S
ROCKLAND       PTCLDY    53  53 100 W3        30.07R
FRYEBURG       CLEAR     52  52 100 CALM      30.09S
LEWISTONAUBURN PTCLDY    49  48  97 CALM      30.08R
AUGUSTA        PTCLDY    56  54  93 CALM      30.07S
WATERVILLE     CLEAR     51  51 100 CALM      30.04S
BANGOR         PTCLDY    53  52  96 S3        30.06R
GREENVILLE       N/A     54  51  90 NW5       30.05R
MILLINOCKET    CLOUDY    51  51 100 CALM      30.06R
HOULTON        MOSUNNY   50  50 100 S3        30.02R
PRESQUE ISLE   CLOUDY    48  46  93 CALM      30.02R
FRENCHVILLE    PTSUNNY   50  47  89 CALM      29.98R
CARIBOU        CLOUDY    50  48  93 CALM      29.99R
$$

NHZ002-005-008-009-011-012-014-291100-
NEW HAMPSHIRE

CITY           SKY/WX    TMP DP  RH WIND       PRES   REMARKS
PORTSMOUTH     MOCLDY    60  53  78 CALM      30.08S
ROCHESTER      MOCLDY    55  51  86 CALM      30.09S
NASHUA         CLOUDY    57  54  89 CALM      30.11R
MANCHESTER     MOCLDY    59  51  75 CALM      30.09R
CONCORD        CLOUDY    54  51  90 E3        30.10R
LACONIA        CLOUDY   N/A N/A N/A CALM      30.11R
PLYMOUTH       FOG       50  49  97 CALM      30.11S VSB 1
BERLIN         FOG       44  42  93 CALM      30.10R VSB 1/4
WHITEFIELD     MOCLDY    45  42  89 CALM      30.10S FOG
JAFFREY        CLOUDY    55  54  96 S5        30.13R
KEENE          CLOUDY    51  51 100 CALM      30.13R
LEBANON        FOG       53  53 100 CALM      30.10S VSB 1/4
MT WASHINGTON  FOG       39  39 100 W44         N/A  VSB 0
$$

VTZ005-007-008-291100-
VERMONT

CITY           SKY/WX    TMP DP  RH WIND       PRES   REMARKS
ST JOHNSBURY     N/A     49  49 100 MISG      30.08S
MONTPELIER     FOG       49  49 100 NE3       30.11F VSB 3/4
BURLINGTON     CLOUDY    64  50  60 S10       30.05S
$$

MAZ007-012-024-CTZ003-RIZ002-NYZ038-NYZ072-291100-
SOUTHERN NEW ENGLAND AND NY

CITY           SKY/WX    TMP DP  RH WIND       PRES   REMARKS
BOSTON         CLOUDY    63  56  78 SW9       30.11R
WORCESTER      PTCLDY    60  50  69 W10       30.14R
NANTUCKET      CLEAR     64  63  96 W13       30.16R
PROVIDENCE     CLOUDY    64  58  80 W8        30.14R
HARTFORD       CLOUDY    63  55  75 S6        30.13R
ALBANY         CLOUDY    62  53  72 S5        30.11R
NEW YORK CITY  MOCLDY    69  58  67 SW8       30.15S
$$

ANZ081-ANZ082-ANZ150-NHZ014-MEZ023>029-291100-
COASTAL MARINE OBSERVATIONS

STATION/POSITION TIME  TEMP    WIND        PRES    WAVE
                       AIR SEA DIR/SP/G            HT/PER
                 (UTC) (F)     (DEG/KT/KT) (MB)    (FT/S)
MATINICUS ROCK   0900   59     230/ 14/ 14 1017.6R
ISLE OF SHOALS   0900   61     270/  5/  6 1018.7R
JEFFREYS LEDGE   0906      56                N/A     2/ 3
CASHES LEDGE BUO 0850   62 62              1018.4    1/11
GEORGES BANK BUO 0850   57 55              1020.6    3/ 8
$$

.............KEY..............
   WCI - WIND CHILL
   TC  - TEMPERATURE IN CELSIUS
   VSB - VISIBILITY IN MILES
   HX  - HEAT INDEX
   FAIR- INDICATES FEW OR NO CLOUDS BELOW 12,000 FT, WITH NO
         SIGNIFICANT WEATHER AND/OR OBSTRUCTIONS TO VISIBILITY.






USA.gov is the U.S. government's official web portal to all federal, state and local government web resources and services.